START_TIME,STEP,MOV.,M35,t_acc.,PL05,t_acc.,PL06,t_acc.,PL07,t_acc.
1979-07-16 18:00:23.950 ,0,1,0.,4.8,4.,4.8,2.,4.8,5.,4.8
1979-07-16 18:00:28.750 ,0,1,0.,4.8,4.,4.8,2.,4.8,1.,4.8
1979-07-16 18:00:33.550 ,0,1,0.,4.8,0.,4.8,3.,4.8,3.,4.8
1979-07-16 18:00:38.350 ,0,1,0.,4.8,4.,4.8,4.,4.8,0.,4.8
1979-07-16 18:00:43.150 ,0,1,0.,4.8,6.,4.8,2.,4.8,0.,4.8
1979-07-16 18:00:47.950 ,4,1,0.,4.8,4.,4.8,1.,4.8,0.,4.8
1979-07-16 18:00:52.750 ,4,1,0.,4.8,4.,4.8,2.,4.8,1.,4.8
1979-07-16 18:00:57.550 ,4,1,0.,4.8,7.,4.8,6.,4.8,4.,4.8
1979-07-16 18:01:02.350 ,4,1,0.,4.8,7.,4.8,1.,4.8,3.,4.8
1979-07-16 18:01:07.150 ,4,1,0.,4.8,2.,4.8,3.,4.8,1.,4.8
1979-07-16 18:01:11.950 ,7,1,0.,4.8,9.,4.8,2.,4.8,0.,4.8
1979-07-16 18:01:16.750 ,7,1,0.,4.8,4.,4.8,3.,4.8,0.,4.8
1979-07-16 18:01:21.550 ,7,1,0.,4.8,5.,4.8,1.,4.8,4.,4.8
1979-07-16 18:01:26.350 ,7,1,0.,4.8,3.,4.8,1.,4.8,3.,4.8
1979-07-16 18:01:31.150 ,7,1,0.,4.8,0.,4.8,0.,4.8,0.,4.8
1979-07-16 18:01:35.950 ,3,1,0.,4.8,1.,4.8,0.,4.8,0.,4.8
1979-07-16 18:01:40.750 ,3,1,0.,4.8,7.,4.8,3.,4.8,3.,4.8
1979-07-16 18:01:45.550 ,3,1,0.,4.8,6.,4.8,1.,4.8,2.,4.8
1979-07-16 18:01:50.350 ,3,1,0.,4.8,2.,4.8,1.,4.8,3.,4.8
1979-07-16 18:01:55.150 ,3,1,0.,4.8,3.,4.8,4.,4.8,3.,4.8
1979-07-16 18:01:59.950 ,0,1,0.,4.8,5.,4.8,4.,4.8,1.,4.8
1979-07-16 18:02:04.750 ,0,1,0.,4.8,4.,4.8,5.,4.8,1.,4.8
1979-07-16 18:02:09.550 ,0,1,0.,4.8,3.,4.8,4.,4.8,2.,4.8
1979-07-16 18:02:14.350 ,0,1,0.,4.8,3.,4.8,0.,4.8,1.,4.8
1979-07-16 18:02:19.150 ,0,1,0.,4.8,5.,4.8,0.,4.8,0.,4.8
1979-07-16 18:02:23.950 ,4,1,0.,4.8,3.,4.8,1.,4.8,2.,4.8
1979-07-16 18:02:28.750 ,4,1,0.,4.8,1.,4.8,3.,4.8,3.,4.8
1979-07-16 18:02:33.550 ,4,1,0.,4.8,2.,4.8,5.,4.8,0.,4.8
1979-07-16 18:02:38.350 ,4,1,0.,4.8,3.,4.8,1.,4.8,4.,4.8
1979-07-16 18:02:43.150 ,4,1,0.,4.8,5.,4.8,3.,4.8,6.,4.8
1979-07-16 18:02:47.950 ,7,1,0.,4.8,3.,4.8,3.,4.8,0.,4.8
1979-07-16 18:02:52.750 ,7,1,0.,4.8,4.,4.8,1.,4.8,4.,4.8
1979-07-16 18:02:57.550 ,7,1,0.,4.8,9.,4.8,3.,4.8,2.,4.8
1979-07-16 18:03:02.350 ,7,1,0.,4.8,0.,4.8,0.,4.8,2.,4.8
1979-07-16 18:03:07.150 ,7,1,0.,4.8,0.,4.8,0.,4.8,0.,4.8
1979-07-16 18:04:47.950 ,0,0,0.,4.8,1.,4.8,1.,4.8,1.,4.8
1979-07-16 18:04:52.750 ,0,0,0.,4.8,1.,4.8,2.,4.8,2.,4.8
1979-07-16 18:04:57.550 ,0,0,0.,4.8,4.,4.8,4.,4.8,3.,4.8
1979-07-16 18:05:02.350 ,0,0,0.,4.8,5.,4.8,4.,4.8,2.,4.8
1979-07-16 18:05:07.150 ,0,0,0.,4.8,3.,4.8,1.,4.8,2.,4.8
1979-07-16 18:05:11.950 ,0,1,0.,4.8,1.,4.8,2.,4.8,3.,4.8
1979-07-16 18:05:16.750 ,0,1,0.,4.8,3.,4.8,6.,4.8,2.,4.8
1979-07-16 18:05:21.550 ,0,1,0.,4.8,1.,4.8,3.,4.8,1.,4.8
1979-07-16 18:05:26.350 ,0,1,0.,4.8,6.,4.8,3.,4.8,2.,4.8
1979-07-16 18:05:31.150 ,0,1,0.,4.8,0.,4.8,2.,4.8,1.,4.8
1979-07-16 18:05:35.950 ,0,0,0.,4.8,1.,4.8,0.,4.8,1.,4.8
1979-07-16 18:05:40.750 ,0,0,0.,4.8,3.,4.8,1.,4.8,0.,4.8
1979-07-16 18:05:45.550 ,0,0,0.,4.8,4.,4.8,9.,4.8,1.,4.8
1979-07-16 18:05:50.350 ,0,0,0.,4.8,4.,4.8,5.,4.8,4.,4.8
1979-07-16 18:05:55.150 ,0,0,0.,4.8,6.,4.8,2.,4.8,3.,4.8
1979-07-16 18:05:59.950 ,0,0,0.,4.8,3.,4.8,2.,4.8,3.,4.8
1979-07-16 18:06:04.750 ,0,0,0.,4.8,2.,4.8,1.,4.8,2.,4.8
1979-07-16 18:06:09.550 ,0,0,0.,4.8,3.,4.8,1.,4.8,1.,4.8
1979-07-16 18:06:14.350 ,0,0,0.,4.8,1.,4.8,1.,4.8,1.,4.8
1979-07-16 18:06:19.150 ,0,0,0.,4.8,0.,4.8,0.,4.8,0.,4.8
1979-07-16 18:06:23.950 ,5,0,0.,4.8,2.,4.8,2.,4.8,0.,4.8
1979-07-16 18:06:28.750 ,5,0,0.,4.8,3.,4.8,0.,4.8,2.,4.8
1979-07-16 18:06:33.550 ,5,0,0.,4.8,4.,4.8,3.,4.8,3.,4.8
1979-07-16 18:06:38.350 ,5,0,0.,4.8,3.,4.8,1.,4.8,0.,4.8
1979-07-16 18:06:43.150 ,5,0,0.,4.8,6.,4.8,5.,4.8,2.,4.8
1979-07-16 18:06:47.950 ,0,0,0.,4.8,5.,4.8,4.,4.8,2.,4.8
1979-07-16 18:06:52.750 ,0,0,0.,4.8,2.,4.8,4.,4.8,0.,4.8
1979-07-16 18:06:57.550 ,0,0,0.,4.8,4.,4.8,4.,4.8,2.,4.8
1979-07-16 18:07:02.350 ,0,0,,0,,0,,0,,0
1979-07-16 18:07:07.150 ,0,0,,0,,0,,0,,0
1979-07-16 18:07:05.950 ,0,0,,0,,0,,0,,0
1979-07-16 18:07:10.750 ,0,0,,0,,0,,0,,0
1979-07-16 18:07:15.550 ,0,0,,0,,0,,0,,0
1979-07-16 18:07:20.350 ,0,0,,0,,0,,0,,0
1979-07-16 18:07:25.150 ,0,0,0.,4.8,1.,4.8,0.,4.8,2.,4.8
1979-07-16 18:07:11.950 ,4,0,0.,4.8,6.,4.8,1.,4.8,1.,4.8
1979-07-16 18:07:16.750 ,4,0,0.,4.8,3.,4.8,2.,4.8,3.,4.8
1979-07-16 18:07:21.550 ,4,0,0.,4.8,4.,4.8,5.,4.8,0.,4.8
1979-07-16 18:07:26.350 ,4,0,0.,4.8,4.,4.8,1.,4.8,2.,4.8
1979-07-16 18:07:31.150 ,4,0,0.,4.8,4.,4.8,6.,4.8,3.,4.8
1979-07-16 18:07:35.950 ,4,0,0.,4.8,4.,4.8,1.,4.8,6.,4.8
1979-07-16 18:07:40.750 ,4,0,0.,4.8,4.,4.8,3.,4.8,0.,4.8
1979-07-16 18:07:45.550 ,4,0,0.,4.8,3.,4.8,4.,4.8,1.,4.8
1979-07-16 18:07:50.350 ,4,0,0.,4.8,3.,4.8,2.,4.8,1.,4.8
1979-07-16 18:07:55.150 ,4,0,0.,4.8,4.,4.8,6.,4.8,0.,4.8
1979-07-16 18:07:59.950 ,3,0,0.,4.8,5.,4.8,2.,4.8,1.,4.8
1979-07-16 18:08:04.750 ,3,0,0.,4.8,5.,4.8,3.,4.8,1.,4.8
1979-07-16 18:08:09.550 ,3,0,0.,4.8,0.,4.8,4.,4.8,2.,4.8
1979-07-16 18:08:14.350 ,3,0,0.,4.8,6.,4.8,5.,4.8,4.,4.8
1979-07-16 18:08:19.150 ,3,0,0.,4.8,4.,4.8,5.,4.8,4.,4.8
1979-07-16 18:08:23.950 ,3,0,0.,4.8,1.,4.8,2.,4.8,1.,4.8
1979-07-16 18:08:28.750 ,3,0,0.,4.8,8.,4.8,0.,4.8,3.,4.8
1979-07-16 18:08:33.550 ,3,0,0.,4.8,5.,4.8,0.,4.8,1.,4.8
1979-07-16 18:08:38.350 ,3,0,0.,4.8,2.,4.8,4.,4.8,0.,4.8
1979-07-16 18:08:43.150 ,3,0,0.,4.8,3.,4.8,4.,4.8,3.,4.8
1979-07-16 18:08:47.950 ,2,0,0.,4.8,4.,4.8,0.,4.8,4.,4.8
1979-07-16 18:08:52.750 ,2,0,0.,4.8,5.,4.8,6.,4.8,1.,4.8
1979-07-16 18:08:57.550 ,2,0,0.,4.8,4.,4.8,5.,4.8,2.,4.8
1979-07-16 18:09:02.350 ,2,0,0.,4.8,1.,4.8,1.,4.8,2.,4.8
1979-07-16 18:09:07.150 ,2,0,0.,4.8,2.,4.8,1.,4.8,2.,4.8
1979-07-16 18:09:11.950 ,2,0,0.,4.8,2.,4.8,3.,4.8,3.,4.8
1979-07-16 18:09:16.750 ,2,0,0.,4.8,7.,4.8,4.,4.8,1.,4.8
1979-07-16 18:09:21.550 ,2,0,0.,4.8,3.,4.8,5.,4.8,6.,4.8
1979-07-16 18:09:26.350 ,2,0,0.,4.8,4.,4.8,5.,4.8,4.,4.8
1979-07-16 18:09:31.150 ,2,0,0.,4.8,3.,4.8,3.,4.8,2.,4.8
1979-07-16 18:09:35.950 ,1,0,1.,4.8,2.,4.8,5.,4.8,2.,4.8
1979-07-16 18:09:40.750 ,1,0,0.,4.8,8.,4.8,5.,4.8,2.,4.8
1979-07-16 18:09:45.550 ,1,0,0.,4.8,4.,4.8,1.,4.8,2.,4.8
1979-07-16 18:09:50.350 ,1,0,0.,4.8,3.,4.8,1.,4.8,0.,4.8
1979-07-16 18:09:55.150 ,1,0,0.,4.8,3.,4.8,1.,4.8,2.,4.8
1979-07-16 18:09:59.950 ,1,0,0.,4.8,5.,4.8,3.,4.8,4.,4.8
1979-07-16 18:10:04.750 ,1,0,0.,4.8,2.,4.8,2.,4.8,3.,4.8
1979-07-16 18:10:09.550 ,1,0,0.,4.8,5.,4.8,4.,4.8,3.,4.8
1979-07-16 18:10:14.350 ,1,0,0.,4.8,4.,4.8,3.,4.8,5.,4.8
1979-07-16 18:10:19.150 ,1,0,0.,4.8,2.,4.8,3.,4.8,1.,4.8
1979-07-16 18:10:23.950 ,0,0,0.,4.8,3.,4.8,4.,4.8,2.,4.8
1979-07-16 18:10:28.750 ,0,0,0.,4.8,7.,4.8,4.,4.8,0.,4.8
1979-07-16 18:10:33.550 ,0,0,0.,4.8,7.,4.8,2.,4.8,2.,4.8
1979-07-16 18:10:38.350 ,0,0,0.,4.8,2.,4.8,2.,4.8,3.,4.8
1979-07-16 18:10:43.150 ,0,0,0.,4.8,3.,4.8,3.,4.8,1.,4.8
1979-07-16 18:10:47.950 ,0,0,0.,4.8,3.,4.8,2.,4.8,2.,4.8
1979-07-16 18:10:52.750 ,0,0,0.,4.8,3.,4.8,1.,4.8,2.,4.8
1979-07-16 18:10:57.550 ,0,0,0.,4.8,6.,4.8,1.,4.8,3.,4.8
1979-07-16 18:11:02.350 ,0,0,0.,4.8,2.,4.8,7.,4.8,4.,4.8
1979-07-16 18:11:07.150 ,0,0,0.,4.8,3.,4.8,1.,4.8,1.,4.8
1979-07-16 18:11:11.950 ,0,0,0.,4.8,4.,4.8,2.,4.8,3.,4.8
1979-07-16 18:11:16.750 ,0,0,0.,4.8,2.,4.8,5.,4.8,3.,4.8
1979-07-16 18:11:21.550 ,0,0,0.,4.8,4.,4.8,1.,4.8,2.,4.8
1979-07-16 18:11:26.350 ,0,0,0.,4.8,5.,4.8,1.,4.8,3.,4.8
1979-07-16 18:11:31.150 ,0,0,0.,4.8,5.,4.8,2.,4.8,1.,4.8
1979-07-16 18:11:35.950 ,0,0,0.,4.8,5.,4.8,0.,4.8,1.,4.8
1979-07-16 18:11:40.750 ,0,0,0.,4.8,3.,4.8,1.,4.8,2.,4.8
1979-07-16 18:11:45.550 ,0,0,0.,4.8,2.,4.8,4.,4.8,1.,4.8
1979-07-16 18:11:50.350 ,0,0,0.,4.8,4.,4.8,4.,4.8,2.,4.8
1979-07-16 18:11:55.150 ,0,0,0.,4.8,3.,4.8,2.,4.8,2.,4.8
1979-07-16 18:11:59.950 ,1,0,0.,4.8,2.,4.8,2.,4.8,4.,4.8
1979-07-16 18:12:04.750 ,1,0,0.,4.8,1.,4.8,1.,4.8,3.,4.8
1979-07-16 18:12:09.550 ,1,0,0.,4.8,5.,4.8,1.,4.8,2.,4.8
1979-07-16 18:12:14.350 ,1,0,0.,4.8,1.,4.8,1.,4.8,1.,4.8
1979-07-16 18:12:19.150 ,1,0,0.,4.8,7.,4.8,2.,4.8,2.,4.8
1979-07-16 18:12:23.950 ,1,0,0.,4.8,5.,4.8,1.,4.8,3.,4.8
1979-07-16 18:12:28.750 ,1,0,0.,4.8,3.,4.8,3.,4.8,4.,4.8
1979-07-16 18:12:33.550 ,1,0,0.,4.8,5.,4.8,1.,4.8,2.,4.8
1979-07-16 18:12:38.350 ,1,0,0.,4.8,5.,4.8,4.,4.8,3.,4.8
1979-07-16 18:12:43.150 ,1,0,0.,4.8,6.,4.8,1.,4.8,2.,4.8
1979-07-16 18:12:47.950 ,2,0,0.,4.8,3.,4.8,0.,4.8,1.,4.8
1979-07-16 18:12:52.750 ,2,0,0.,4.8,2.,4.8,1.,4.8,0.,4.8
1979-07-16 18:12:57.550 ,2,0,0.,4.8,1.,4.8,2.,4.8,5.,4.8
1979-07-16 18:13:02.350 ,2,0,0.,4.8,2.,4.8,3.,4.8,2.,4.8
1979-07-16 18:13:07.150 ,2,0,0.,4.8,5.,4.8,1.,4.8,2.,4.8
1979-07-16 18:13:11.950 ,2,0,0.,4.8,4.,4.8,0.,4.8,2.,4.8
1979-07-16 18:13:16.750 ,2,0,0.,4.8,3.,4.8,3.,4.8,1.,4.8
1979-07-16 18:13:21.550 ,2,0,0.,4.8,3.,4.8,4.,4.8,1.,4.8
1979-07-16 18:13:26.350 ,2,0,0.,4.8,2.,4.8,3.,4.8,2.,4.8
1979-07-16 18:13:31.150 ,2,0,0.,4.8,5.,4.8,3.,4.8,3.,4.8
1979-07-16 18:13:35.950 ,3,0,0.,4.8,4.,4.8,1.,4.8,3.,4.8
1979-07-16 18:13:40.750 ,3,0,0.,4.8,2.,4.8,1.,4.8,0.,4.8
1979-07-16 18:13:45.550 ,3,0,0.,4.8,2.,4.8,4.,4.8,3.,4.8
1979-07-16 18:13:50.350 ,3,0,0.,4.8,3.,4.8,5.,4.8,1.,4.8
1979-07-16 18:13:55.150 ,3,0,0.,4.8,4.,4.8,1.,4.8,0.,4.8
1979-07-16 18:13:59.950 ,3,0,0.,4.8,5.,4.8,0.,4.8,3.,4.8
1979-07-16 18:14:04.750 ,3,0,0.,4.8,1.,4.8,2.,4.8,2.,4.8
1979-07-16 18:14:09.550 ,3,0,0.,4.8,3.,4.8,1.,4.8,3.,4.8
1979-07-16 18:14:14.350 ,3,0,0.,4.8,3.,4.8,4.,4.8,2.,4.8
1979-07-16 18:14:19.150 ,3,0,0.,4.8,5.,4.8,1.,4.8,4.,4.8
1979-07-16 18:14:23.950 ,4,0,0.,4.8,4.,4.8,0.,4.8,0.,4.8
1979-07-16 18:14:28.750 ,4,0,0.,4.8,6.,4.8,2.,4.8,1.,4.8
1979-07-16 18:14:33.550 ,4,0,0.,4.8,3.,4.8,1.,4.8,4.,4.8
1979-07-16 18:14:38.350 ,4,0,0.,4.8,6.,4.8,0.,4.8,1.,4.8
1979-07-16 18:14:43.150 ,4,0,0.,4.8,2.,4.8,2.,4.8,3.,4.8
1979-07-16 18:14:47.950 ,4,0,0.,4.8,1.,4.8,1.,4.8,7.,4.8
1979-07-16 18:14:52.750 ,4,0,0.,4.8,5.,4.8,1.,4.8,1.,4.8
1979-07-16 18:14:57.550 ,4,0,0.,4.8,4.,4.8,3.,4.8,3.,4.8
1979-07-16 18:15:02.350 ,4,0,0.,4.8,3.,4.8,3.,4.8,1.,4.8
1979-07-16 18:15:07.150 ,4,0,0.,4.8,1.,4.8,4.,4.8,2.,4.8
1979-07-16 18:15:11.950 ,5,0,0.,4.8,6.,4.8,3.,4.8,0.,4.8
1979-07-16 18:15:16.750 ,5,0,0.,4.8,3.,4.8,1.,4.8,2.,4.8
1979-07-16 18:15:21.550 ,5,0,0.,4.8,4.,4.8,3.,4.8,1.,4.8
1979-07-16 18:15:26.350 ,5,0,0.,4.8,5.,4.8,4.,4.8,2.,4.8
1979-07-16 18:15:31.150 ,5,0,0.,4.8,3.,4.8,1.,4.8,2.,4.8
1979-07-16 18:15:35.950 ,5,0,0.,4.8,3.,4.8,2.,4.8,4.,4.8
1979-07-16 18:15:40.750 ,5,0,0.,4.8,2.,4.8,3.,4.8,5.,4.8
1979-07-16 18:15:45.550 ,5,0,0.,4.8,5.,4.8,6.,4.8,3.,4.8
1979-07-16 18:15:50.350 ,5,0,0.,4.8,2.,4.8,4.,4.8,2.,4.8
1979-07-16 18:15:55.150 ,5,0,0.,4.8,8.,4.8,5.,4.8,1.,4.8
1979-07-16 18:15:59.950 ,6,0,0.,4.8,6.,4.8,1.,4.8,0.,4.8
1979-07-16 18:16:04.750 ,6,0,0.,4.8,5.,4.8,5.,4.8,3.,4.8
1979-07-16 18:16:09.550 ,6,0,0.,4.8,4.,4.8,2.,4.8,2.,4.8
1979-07-16 18:16:14.350 ,6,0,0.,4.8,6.,4.8,2.,4.8,3.,4.8
1979-07-16 18:16:19.150 ,6,0,0.,4.8,3.,4.8,2.,4.8,1.,4.8
1979-07-16 18:16:23.950 ,6,0,0.,4.8,3.,4.8,1.,4.8,1.,4.8
1979-07-16 18:16:28.750 ,6,0,0.,4.8,4.,4.8,2.,4.8,4.,4.8
1979-07-16 18:16:33.550 ,6,0,0.,4.8,5.,4.8,5.,4.8,5.,4.8
1979-07-16 18:16:38.350 ,6,0,0.,4.8,4.,4.8,1.,4.8,1.,4.8
1979-07-16 18:16:43.150 ,6,0,0.,4.8,4.,4.8,2.,4.8,3.,4.8
1979-07-16 18:16:47.950 ,7,0,0.,4.8,3.,4.8,5.,4.8,3.,4.8
1979-07-16 18:16:52.750 ,7,0,0.,4.8,3.,4.8,2.,4.8,1.,4.8
1979-07-16 18:16:57.550 ,7,0,0.,4.8,1.,4.8,0.,4.8,0.,4.8
1979-07-16 18:17:02.350 ,7,0,0.,4.8,2.,4.8,0.,4.8,0.,4.8
1979-07-16 18:17:07.150 ,7,0,0.,4.8,1.,4.8,0.,4.8,0.,4.8
1979-07-16 18:17:11.950 ,7,0,0.,4.8,2.,4.8,0.,4.8,0.,4.8
1979-07-16 18:17:16.750 ,7,0,0.,4.8,2.,4.8,0.,4.8,1.,4.8
1979-07-16 18:17:21.550 ,7,0,0.,4.8,0.,4.8,1.,4.8,0.,4.8
1979-07-16 18:17:26.350 ,7,0,0.,4.8,0.,4.8,0.,4.8,0.,4.8
1979-07-16 18:17:31.150 ,7,0,0.,4.8,0.,4.8,0.,4.8,1.,4.8
1979-07-16 18:17:35.950 ,7,0,0.,4.8,0.,4.8,0.,4.8,0.,4.8
1979-07-16 18:17:40.750 ,7,0,0.,4.8,1.,4.8,0.,4.8,0.,4.8
1979-07-16 18:17:45.550 ,7,0,0.,4.8,0.,4.8,0.,4.8,0.,4.8
1979-07-16 18:17:50.350 ,7,0,0.,4.8,1.,4.8,0.,4.8,0.,4.8
1979-07-16 18:17:55.150 ,7,0,0.,4.8,0.,4.8,0.,4.8,0.,4.8
1979-07-16 18:17:59.950 ,7,0,0.,4.8,0.,4.8,0.,4.8,0.,4.8
1979-07-16 18:18:04.750 ,7,0,0.,4.8,1.,4.8,0.,4.8,1.,4.8
1979-07-16 18:18:09.550 ,7,0,0.,4.8,1.,4.8,0.,4.8,0.,4.8
1979-07-16 18:18:14.350 ,7,0,0.,4.8,0.,4.8,0.,4.8,0.,4.8
1979-07-16 18:18:19.150 ,7,0,0.,4.8,1.,4.8,0.,4.8,0.,4.8
1979-07-16 18:18:23.950 ,6,0,0.,4.8,0.,4.8,0.,4.8,0.,4.8
1979-07-16 18:18:28.750 ,6,0,0.,4.8,0.,4.8,0.,4.8,0.,4.8
1979-07-16 18:18:33.550 ,6,0,0.,4.8,4.,4.8,1.,4.8,1.,4.8
1979-07-16 18:18:38.350 ,6,0,0.,4.8,4.,4.8,1.,4.8,4.,4.8
1979-07-16 18:18:43.150 ,6,0,0.,4.8,7.,4.8,4.,4.8,0.,4.8
1979-07-16 18:18:47.950 ,6,0,0.,4.8,4.,4.8,3.,4.8,3.,4.8
1979-07-16 18:18:52.750 ,6,0,0.,4.8,2.,4.8,1.,4.8,2.,4.8
1979-07-16 18:18:57.550 ,6,0,0.,4.8,3.,4.8,0.,4.8,1.,4.8
1979-07-16 18:19:02.350 ,6,0,0.,4.8,3.,4.8,4.,4.8,1.,4.8
1979-07-16 18:19:07.150 ,6,0,0.,4.8,5.,4.8,2.,4.8,0.,4.8
1979-07-16 18:19:11.950 ,5,0,0.,4.8,1.,4.8,0.,4.8,3.,4.8
1979-07-16 18:19:16.750 ,5,0,0.,4.8,3.,4.8,3.,4.8,0.,4.8
1979-07-16 18:19:21.550 ,5,0,0.,4.8,8.,4.8,3.,4.8,3.,4.8
1979-07-16 18:19:26.350 ,5,0,0.,4.8,1.,4.8,4.,4.8,0.,4.8
1979-07-16 18:19:31.150 ,5,0,0.,4.8,5.,4.8,2.,4.8,0.,4.8
1979-07-16 18:19:35.950 ,5,0,0.,4.8,5.,4.8,2.,4.8,4.,4.8
1979-07-16 18:19:40.750 ,5,0,0.,4.8,3.,4.8,1.,4.8,3.,4.8
1979-07-16 18:19:45.550 ,5,0,0.,4.8,3.,4.8,4.,4.8,2.,4.8
1979-07-16 18:19:50.350 ,5,0,0.,4.8,3.,4.8,1.,4.8,0.,4.8
1979-07-16 18:19:55.150 ,5,0,0.,4.8,3.,4.8,4.,4.8,1.,4.8
1979-07-16 18:19:59.950 ,4,0,0.,4.8,3.,4.8,1.,4.8,3.,4.8
1979-07-16 18:20:04.750 ,4,0,0.,4.8,6.,4.8,2.,4.8,3.,4.8
1979-07-16 18:20:09.550 ,4,0,0.,4.8,7.,4.8,2.,4.8,1.,4.8
1979-07-16 18:20:14.350 ,4,0,0.,4.8,5.,4.8,1.,4.8,1.,4.8
1979-07-16 18:20:19.150 ,4,0,0.,4.8,10.,4.8,0.,4.8,2.,4.8
1979-07-16 18:20:23.950 ,4,0,0.,4.8,6.,4.8,2.,4.8,0.,4.8
1979-07-16 18:20:28.750 ,4,0,0.,4.8,8.,4.8,5.,4.8,2.,4.8
1979-07-16 18:20:33.550 ,4,0,0.,4.8,2.,4.8,4.,4.8,1.,4.8
1979-07-16 18:20:38.350 ,4,0,0.,4.8,2.,4.8,3.,4.8,4.,4.8
1979-07-16 18:20:43.150 ,4,0,0.,4.8,4.,4.8,5.,4.8,2.,4.8
1979-07-16 18:20:47.950 ,3,0,0.,4.8,4.,4.8,2.,4.8,1.,4.8
1979-07-16 18:20:52.750 ,3,0,0.,4.8,7.,4.8,3.,4.8,1.,4.8
1979-07-16 18:20:57.550 ,3,0,0.,4.8,5.,4.8,1.,4.8,2.,4.8
1979-07-16 18:21:02.350 ,3,0,0.,4.8,6.,4.8,2.,4.8,0.,4.8
1979-07-16 18:21:07.150 ,3,0,0.,4.8,3.,4.8,2.,4.8,0.,4.8
1979-07-16 18:21:11.950 ,3,0,0.,4.8,5.,4.8,2.,4.8,2.,4.8
1979-07-16 18:21:16.750 ,3,0,1.,4.8,4.,4.8,1.,4.8,4.,4.8
1979-07-16 18:21:21.550 ,3,0,0.,4.8,4.,4.8,1.,4.8,3.,4.8
1979-07-16 18:21:26.350 ,3,0,0.,4.8,4.,4.8,5.,4.8,1.,4.8
1979-07-16 18:21:31.150 ,3,0,0.,4.8,2.,4.8,5.,4.8,2.,4.8
1979-07-16 18:21:35.950 ,2,0,0.,4.8,9.,4.8,1.,4.8,2.,4.8
1979-07-16 18:21:40.750 ,2,0,0.,4.8,8.,4.8,4.,4.8,5.,4.8
1979-07-16 18:21:45.550 ,2,0,0.,4.8,5.,4.8,3.,4.8,0.,4.8
1979-07-16 18:21:50.350 ,2,0,0.,4.8,4.,4.8,3.,4.8,2.,4.8
1979-07-16 18:21:55.150 ,2,0,0.,4.8,8.,4.8,1.,4.8,2.,4.8
1979-07-16 18:21:59.950 ,2,0,0.,4.8,4.,4.8,1.,4.8,3.,4.8
1979-07-16 18:22:04.750 ,2,0,0.,4.8,4.,4.8,9.,4.8,6.,4.8
1979-07-16 18:22:09.550 ,2,0,0.,4.8,4.,4.8,4.,4.8,0.,4.8
1979-07-16 18:22:14.350 ,2,0,0.,4.8,5.,4.8,1.,4.8,1.,4.8
1979-07-16 18:22:19.150 ,2,0,0.,4.8,6.,4.8,3.,4.8,3.,4.8
1979-07-16 18:22:23.950 ,1,0,0.,4.8,7.,4.8,2.,4.8,0.,4.8
1979-07-16 18:22:28.750 ,1,0,0.,4.8,3.,4.8,1.,4.8,2.,4.8
1979-07-16 18:22:33.550 ,1,0,0.,4.8,2.,4.8,5.,4.8,1.,4.8
1979-07-16 18:22:38.350 ,1,0,0.,4.8,5.,4.8,1.,4.8,3.,4.8
1979-07-16 18:22:43.150 ,1,0,0.,4.8,5.,4.8,3.,4.8,5.,4.8
1979-07-16 18:22:47.950 ,1,0,0.,4.8,4.,4.8,3.,4.8,2.,4.8
1979-07-16 18:22:52.750 ,1,0,0.,4.8,2.,4.8,0.,4.8,1.,4.8
1979-07-16 18:22:57.550 ,1,0,0.,4.8,5.,4.8,2.,4.8,2.,4.8
1979-07-16 18:23:02.350 ,1,0,0.,4.8,4.,4.8,1.,4.8,4.,4.8
1979-07-16 18:23:07.150 ,1,0,0.,4.8,5.,4.8,0.,4.8,1.,4.8
1979-07-16 18:23:11.950 ,0,0,0.,4.8,3.,4.8,4.,4.8,2.,4.8
1979-07-16 18:23:16.750 ,0,0,0.,4.8,2.,4.8,0.,4.8,2.,4.8
1979-07-16 18:23:21.550 ,0,0,0.,4.8,9.,4.8,4.,4.8,4.,4.8
1979-07-16 18:23:26.350 ,0,0,0.,4.8,7.,4.8,1.,4.8,1.,4.8
1979-07-16 18:23:31.150 ,0,0,0.,4.8,4.,4.8,5.,4.8,1.,4.8
1979-07-16 18:23:35.950 ,0,0,0.,4.8,4.,4.8,2.,4.8,5.,4.8
1979-07-16 18:23:40.750 ,0,0,0.,4.8,1.,4.8,5.,4.8,1.,4.8
1979-07-16 18:23:45.550 ,0,0,0.,4.8,4.,4.8,5.,4.8,0.,4.8
1979-07-16 18:23:50.350 ,0,0,0.,4.8,1.,4.8,4.,4.8,1.,4.8
1979-07-16 18:23:55.150 ,0,0,0.,4.8,5.,4.8,1.,4.8,1.,4.8
1979-07-16 18:23:59.950 ,0,0,0.,4.8,4.,4.8,2.,4.8,1.,4.8
1979-07-16 18:24:04.750 ,0,0,0.,4.8,5.,4.8,2.,4.8,0.,4.8
1979-07-16 18:24:09.550 ,0,0,0.,4.8,3.,4.8,3.,4.8,2.,4.8
1979-07-16 18:24:14.350 ,0,0,0.,4.8,3.,4.8,3.,4.8,2.,4.8
1979-07-16 18:24:19.150 ,0,0,0.,4.8,4.,4.8,4.,4.8,0.,4.8
1979-07-16 18:24:23.950 ,0,0,0.,4.8,2.,4.8,5.,4.8,1.,4.8
1979-07-16 18:24:28.750 ,0,0,0.,4.8,2.,4.8,2.,4.8,5.,4.8
1979-07-16 18:24:33.550 ,0,0,0.,4.8,4.,4.8,1.,4.8,2.,4.8
1979-07-16 18:24:38.350 ,0,0,0.,4.8,4.,4.8,2.,4.8,1.,4.8
1979-07-16 18:24:43.150 ,0,0,0.,4.8,3.,4.8,1.,4.8,0.,4.8
1979-07-16 18:24:47.950 ,1,0,0.,4.8,4.,4.8,5.,4.8,3.,4.8
1979-07-16 18:24:52.750 ,1,0,0.,4.8,1.,4.8,2.,4.8,3.,4.8
1979-07-16 18:24:57.550 ,1,0,0.,4.8,2.,4.8,3.,4.8,4.,4.8
1979-07-16 18:25:02.350 ,1,0,0.,4.8,5.,4.8,2.,4.8,1.,4.8
1979-07-16 18:25:07.150 ,1,0,0.,4.8,6.,4.8,2.,4.8,1.,4.8
1979-07-16 18:25:11.950 ,1,0,0.,4.8,2.,4.8,4.,4.8,0.,4.8
1979-07-16 18:25:16.750 ,1,0,0.,4.8,2.,4.8,4.,4.8,4.,4.8
1979-07-16 18:25:21.550 ,1,0,0.,4.8,3.,4.8,2.,4.8,1.,4.8
1979-07-16 18:25:26.350 ,1,0,0.,4.8,1.,4.8,2.,4.8,4.,4.8
1979-07-16 18:25:31.150 ,1,0,0.,4.8,4.,4.8,1.,4.8,2.,4.8
1979-07-16 18:25:35.950 ,2,0,0.,4.8,5.,4.8,1.,4.8,4.,4.8
1979-07-16 18:25:40.750 ,2,0,0.,4.8,7.,4.8,2.,4.8,4.,4.8
1979-07-16 18:25:45.550 ,2,0,0.,4.8,5.,4.8,4.,4.8,2.,4.8
1979-07-16 18:25:50.350 ,2,0,0.,4.8,6.,4.8,0.,4.8,2.,4.8
1979-07-16 18:25:55.150 ,2,0,0.,4.8,4.,4.8,3.,4.8,2.,4.8
1979-07-16 18:25:59.950 ,2,0,0.,4.8,5.,4.8,6.,4.8,1.,4.8
1979-07-16 18:26:04.750 ,2,0,0.,4.8,3.,4.8,5.,4.8,2.,4.8
1979-07-16 18:26:09.550 ,2,0,0.,4.8,4.,4.8,2.,4.8,2.,4.8
1979-07-16 18:26:14.350 ,2,0,0.,4.8,6.,4.8,1.,4.8,1.,4.8
1979-07-16 18:26:19.150 ,2,0,0.,4.8,2.,4.8,5.,4.8,2.,4.8
1979-07-16 18:26:23.950 ,3,0,0.,4.8,1.,4.8,1.,4.8,0.,4.8
1979-07-16 18:26:28.750 ,3,0,0.,4.8,4.,4.8,0.,4.8,2.,4.8
1979-07-16 18:26:33.550 ,3,0,0.,4.8,5.,4.8,4.,4.8,2.,4.8
1979-07-16 18:26:38.350 ,3,0,0.,4.8,1.,4.8,0.,4.8,4.,4.8
1979-07-16 18:26:43.150 ,3,0,0.,4.8,6.,4.8,1.,4.8,1.,4.8
1979-07-16 18:26:47.950 ,3,0,0.,4.8,7.,4.8,4.,4.8,5.,4.8
1979-07-16 18:26:52.750 ,3,0,0.,4.8,2.,4.8,3.,4.8,0.,4.8
1979-07-16 18:26:57.550 ,3,0,0.,4.8,4.,4.8,1.,4.8,6.,4.8
1979-07-16 18:27:02.350 ,3,0,0.,4.8,7.,4.8,7.,4.8,0.,4.8
1979-07-16 18:27:07.150 ,3,0,0.,4.8,3.,4.8,4.,4.8,1.,4.8
1979-07-16 18:27:11.950 ,4,0,0.,4.8,3.,4.8,2.,4.8,0.,4.8
1979-07-16 18:27:16.750 ,4,0,0.,4.8,7.,4.8,1.,4.8,7.,4.8
1979-07-16 18:27:21.550 ,4,0,0.,4.8,2.,4.8,2.,4.8,0.,4.8
1979-07-16 18:27:26.350 ,4,0,0.,4.8,3.,4.8,2.,4.8,1.,4.8
1979-07-16 18:27:31.150 ,4,0,0.,4.8,5.,4.8,3.,4.8,1.,4.8
1979-07-16 18:27:35.950 ,4,0,0.,4.8,2.,4.8,3.,4.8,1.,4.8
1979-07-16 18:27:40.750 ,4,0,0.,4.8,4.,4.8,2.,4.8,2.,4.8
1979-07-16 18:27:45.550 ,4,0,0.,4.8,5.,4.8,4.,4.8,1.,4.8
1979-07-16 18:27:50.350 ,4,0,0.,4.8,7.,4.8,2.,4.8,3.,4.8
1979-07-16 18:27:55.150 ,4,0,0.,4.8,2.,4.8,1.,4.8,1.,4.8
1979-07-16 18:27:59.950 ,5,0,0.,4.8,4.,4.8,5.,4.8,3.,4.8
1979-07-16 18:28:04.750 ,5,0,0.,4.8,2.,4.8,2.,4.8,3.,4.8
1979-07-16 18:28:09.550 ,5,0,0.,4.8,2.,4.8,4.,4.8,1.,4.8
1979-07-16 18:28:14.350 ,5,0,0.,4.8,3.,4.8,5.,4.8,0.,4.8
1979-07-16 18:28:19.150 ,5,0,0.,4.8,4.,4.8,4.,4.8,3.,4.8
1979-07-16 18:28:23.950 ,5,0,0.,4.8,6.,4.8,4.,4.8,4.,4.8
1979-07-16 18:28:28.750 ,5,0,0.,4.8,1.,4.8,3.,4.8,1.,4.8
1979-07-16 18:28:33.550 ,5,0,0.,4.8,6.,4.8,4.,4.8,0.,4.8
1979-07-16 18:28:38.350 ,5,0,0.,4.8,4.,4.8,0.,4.8,4.,4.8
1979-07-16 18:28:43.150 ,5,0,0.,4.8,4.,4.8,2.,4.8,2.,4.8
1979-07-16 18:28:47.950 ,6,0,0.,4.8,9.,4.8,3.,4.8,2.,4.8
1979-07-16 18:28:52.750 ,6,0,0.,4.8,1.,4.8,1.,4.8,1.,4.8
1979-07-16 18:28:57.550 ,6,0,0.,4.8,3.,4.8,3.,4.8,2.,4.8
1979-07-16 18:29:02.350 ,6,0,0.,4.8,5.,4.8,3.,4.8,1.,4.8
1979-07-16 18:29:07.150 ,6,0,0.,4.8,2.,4.8,1.,4.8,4.,4.8
1979-07-16 18:29:11.950 ,6,0,0.,4.8,0.,4.8,3.,4.8,0.,4.8
1979-07-16 18:29:16.750 ,6,0,0.,4.8,6.,4.8,2.,4.8,2.,4.8
1979-07-16 18:29:21.550 ,6,0,0.,4.8,5.,4.8,1.,4.8,1.,4.8
1979-07-16 18:29:26.350 ,6,0,0.,4.8,5.,4.8,1.,4.8,4.,4.8
1979-07-16 18:29:31.150 ,6,0,0.,4.8,4.,4.8,5.,4.8,2.,4.8
1979-07-16 18:29:35.950 ,7,0,0.,4.8,1.,4.8,1.,4.8,3.,4.8
1979-07-16 18:29:40.750 ,7,0,0.,4.8,2.,4.8,3.,4.8,3.,4.8
1979-07-16 18:29:45.550 ,7,0,0.,4.8,0.,4.8,0.,4.8,0.,4.8
1979-07-16 18:29:50.350 ,7,0,0.,4.8,1.,4.8,0.,4.8,0.,4.8
1979-07-16 18:29:55.150 ,7,0,0.,4.8,0.,4.8,0.,4.8,1.,4.8
1979-07-16 18:29:59.950 ,7,0,0.,4.8,0.,4.8,0.,4.8,0.,4.8
1979-07-16 18:30:04.750 ,7,0,0.,4.8,1.,4.8,0.,4.8,0.,4.8
1979-07-16 18:30:09.550 ,7,0,0.,4.8,1.,4.8,0.,4.8,0.,4.8
1979-07-16 18:30:14.350 ,7,0,0.,4.8,2.,4.8,0.,4.8,0.,4.8
1979-07-16 18:30:19.150 ,7,0,0.,4.8,0.,4.8,1.,4.8,0.,4.8
1979-07-16 18:30:23.950 ,7,0,0.,4.8,0.,4.8,0.,4.8,0.,4.8
1979-07-16 18:30:28.750 ,7,0,0.,4.8,1.,4.8,0.,4.8,0.,4.8
1979-07-16 18:30:33.550 ,7,0,0.,4.8,0.,4.8,0.,4.8,0.,4.8
1979-07-16 18:30:38.350 ,7,0,0.,4.8,1.,4.8,1.,4.8,0.,4.8
1979-07-16 18:30:43.150 ,7,0,0.,4.8,0.,4.8,0.,4.8,0.,4.8
1979-07-16 18:30:47.950 ,7,0,0.,4.8,0.,4.8,0.,4.8,0.,4.8
1979-07-16 18:30:52.750 ,7,0,0.,4.8,0.,4.8,0.,4.8,0.,4.8
1979-07-16 18:30:57.550 ,7,0,0.,4.8,0.,4.8,0.,4.8,0.,4.8
1979-07-16 18:31:02.350 ,7,0,0.,4.8,0.,4.8,0.,4.8,0.,4.8
1979-07-16 18:31:07.150 ,7,0,0.,4.8,1.,4.8,0.,4.8,0.,4.8
1979-07-16 18:31:59.950 ,0,0,0.,4.8,8.,4.8,1.,4.8,2.,4.8
1979-07-16 18:32:04.750 ,0,0,0.,4.8,4.,4.8,2.,4.8,0.,4.8
1979-07-16 18:32:09.550 ,0,0,0.,4.8,4.,4.8,2.,4.8,2.,4.8
1979-07-16 18:32:14.350 ,0,0,0.,4.8,6.,4.8,2.,4.8,2.,4.8
1979-07-16 18:32:19.150 ,0,0,0.,4.8,1.,4.8,1.,4.8,5.,4.8
1979-07-16 18:32:23.950 ,0,0,0.,4.8,5.,4.8,1.,4.8,2.,4.8
1979-07-16 18:32:28.750 ,0,0,0.,4.8,0.,4.8,3.,4.8,1.,4.8
1979-07-16 18:32:33.550 ,0,0,0.,4.8,6.,4.8,3.,4.8,0.,4.8
1979-07-16 18:32:38.350 ,0,0,0.,4.8,3.,4.8,1.,4.8,3.,4.8
1979-07-16 18:32:43.150 ,0,0,0.,4.8,5.,4.8,2.,4.8,0.,4.8
1979-07-16 18:32:47.950 ,4,0,0.,4.8,8.,4.8,2.,4.8,2.,4.8
1979-07-16 18:32:52.750 ,4,0,0.,4.8,5.,4.8,3.,4.8,1.,4.8
1979-07-16 18:32:57.550 ,4,0,0.,4.8,4.,4.8,2.,4.8,6.,4.8
1979-07-16 18:33:02.350 ,4,0,0.,4.8,6.,4.8,2.,4.8,1.,4.8
1979-07-16 18:33:07.150 ,4,0,0.,4.8,4.,4.8,6.,4.8,0.,4.8
1979-07-16 18:33:11.950 ,4,0,0.,4.8,3.,4.8,4.,4.8,4.,4.8
1979-07-16 18:33:16.750 ,4,0,0.,4.8,5.,4.8,2.,4.8,1.,4.8
1979-07-16 18:33:21.550 ,4,0,0.,4.8,1.,4.8,1.,4.8,1.,4.8
1979-07-16 18:33:26.350 ,4,0,0.,4.8,4.,4.8,2.,4.8,3.,4.8
1979-07-16 18:33:31.150 ,4,0,0.,4.8,4.,4.8,3.,4.8,1.,4.8
1979-07-16 18:33:35.950 ,3,0,0.,4.8,3.,4.8,1.,4.8,3.,4.8
1979-07-16 18:33:40.750 ,3,0,0.,4.8,4.,4.8,4.,4.8,2.,4.8
1979-07-16 18:33:45.550 ,3,0,0.,4.8,4.,4.8,2.,4.8,0.,4.8
1979-07-16 18:33:50.350 ,3,0,0.,4.8,6.,4.8,0.,4.8,0.,4.8
1979-07-16 18:33:55.150 ,3,0,0.,4.8,3.,4.8,5.,4.8,4.,4.8
1979-07-16 18:33:59.950 ,3,0,0.,4.8,3.,4.8,1.,4.8,1.,4.8
1979-07-16 18:34:04.750 ,3,0,0.,4.8,2.,4.8,1.,4.8,3.,4.8
1979-07-16 18:34:09.550 ,3,0,0.,4.8,1.,4.8,1.,4.8,5.,4.8
1979-07-16 18:34:14.350 ,3,0,0.,4.8,4.,4.8,4.,4.8,1.,4.8
1979-07-16 18:34:19.150 ,3,0,0.,4.8,4.,4.8,0.,4.8,2.,4.8
1979-07-16 18:34:23.950 ,2,0,0.,4.8,5.,4.8,5.,4.8,0.,4.8
1979-07-16 18:34:28.750 ,2,0,0.,4.8,5.,4.8,1.,4.8,2.,4.8
1979-07-16 18:34:33.550 ,2,0,0.,4.8,5.,4.8,1.,4.8,6.,4.8
1979-07-16 18:34:38.350 ,2,0,0.,4.8,6.,4.8,2.,4.8,1.,4.8
1979-07-16 18:34:43.150 ,2,0,0.,4.8,3.,4.8,5.,4.8,1.,4.8
1979-07-16 18:34:47.950 ,2,0,0.,4.8,7.,4.8,3.,4.8,5.,4.8
1979-07-16 18:34:52.750 ,2,0,0.,4.8,3.,4.8,3.,4.8,1.,4.8
1979-07-16 18:34:57.550 ,2,0,0.,4.8,6.,4.8,1.,4.8,2.,4.8
1979-07-16 18:35:02.350 ,2,0,0.,4.8,1.,4.8,4.,4.8,2.,4.8
1979-07-16 18:35:07.150 ,2,0,0.,4.8,7.,4.8,4.,4.8,4.,4.8
1979-07-16 18:35:11.950 ,1,0,0.,4.8,5.,4.8,2.,4.8,5.,4.8
1979-07-16 18:35:16.750 ,1,0,0.,4.8,5.,4.8,8.,4.8,3.,4.8
1979-07-16 18:35:21.550 ,1,0,0.,4.8,2.,4.8,4.,4.8,2.,4.8
1979-07-16 18:35:26.350 ,1,0,0.,4.8,4.,4.8,3.,4.8,1.,4.8